Location: Unspecified
(0.0000°N, 0.0000°E)
Time: 17:41:21
(UTC+02:00)

BREEZE-M DEB (TANK) - Visible Passes

Search period start: 06 July 2015 00:00
Search period end: 16 July 2015 00:00
Orbit: 356 x 16341 km, 49.5° (Epoch: 04 July)

Date Brightness Start Highest point End Pass type
(mag) Time Alt. Az. Time Alt. Az. Time Alt. Az.
06 Jul 8.4 00:35:38 10° NW 03:43:50 25° SSW 04:06:22 10° S visible
06 Jul 8.6 20:01:47 10° N 20:46:34 50° ENE 22:40:32 35° SE visible
07 Jul 8.2 01:29:01 10° WNW 04:26:00 20° SSW 04:50:34 10° S visible
07 Jul 8.8 20:45:12 10° NNW 21:40:24 67° ENE 00:14:45 10° SSE visible
08 Jul 8.0 02:35:49 10° W 05:18:18 13° SSW 05:32:54 10° S visible
08 Jul 8.9 21:29:23 10° NNW 22:36:39 84° ENE 01:02:50 10° SSE visible
09 Jul 8.7 22:14:24 10° NW 23:37:18 77° SW 01:49:40 10° SSE visible
10 Jul 8.2 17:56:11 10° NNE 18:12:41 17° NE 20:30:40 10° ESE visible
10 Jul 8.6 23:00:35 10° NW 00:44:25 59° SW 02:35:42 10° SSE visible
11 Jul 8.4 18:35:01 10° N 19:04:48 31° NE 21:35:14 12° SE visible
11 Jul 8.5 23:48:38 10° NW 01:59:06 41° SW 03:21:07 10° SSE visible
12 Jul 8.5 19:17:00 10° N 19:56:26 46° ENE 22:22:48 18° SE visible
13 Jul 8.3 00:40:20 10° WNW 03:17:18 26° SW 04:06:03 10° S visible
13 Jul 8.7 20:00:05 10° NNW 20:48:34 63° ENE 23:26:30 10° SE visible
14 Jul 8.1 01:41:34 10° WNW 04:28:52 15° SSW 04:50:14 10° S visible
14 Jul 8.9 20:43:56 10° NNW 21:42:47 80° ENE 00:15:21 10° SSE visible
